Simultaneous Nadir Overpasses (SNOs) Predictions

Prediction of SNOs between GOES-15 and TERRA Satellite Orbit:

Table of predicted SNOs for the next 14.0 days since TLE Epoch: 3/6/2020
Index Date Time (GOES-15) GOES-15 Lat,Lon TERRA Lat,Lon Distance(km) Time Diff (sec)
1 03/08/2020 07:06:30 -0.27,-128.38 -0.32,-128.75 40.90 80
2 03/10/2020 06:51:38 -0.26,-128.36 0.31,-125.79 293.59 80
3 03/10/2020 19:15:32 0.28,-128.40 0.80,-130.94 288.27 80
4 03/12/2020 19:00:40 0.28,-128.37 0.17,-127.98 45.83 80
5 03/14/2020 18:48:28 0.27,-128.34 -0.47,-125.01 379.16 80
6 03/15/2020 07:12:31 -0.29,-128.29 -0.71,-130.19 215.79 80
7 03/17/2020 06:57:39 -0.28,-128.26 -0.07,-127.23 116.88 80
8 03/17/2020 19:21:34 0.30,-128.29 1.18,-132.38 465.81 80
9 03/19/2020 06:45:27 -0.27,-128.22 0.57,-124.27 449.33 80
10 03/19/2020 19:09:22 0.29,-128.25 0.54,-129.42 133.40 80




NCC Satellite Simultaneous Nadir Overpasses (SNOs) Prediction Service
